NIMBUS 2 DEB, 37892

Orbit data source: Space-Track

NIMBUS 2 DEB, 37892 is space debris in SSO originally from a launch on Sun, 15 May 1966 UTC launched from the Air Force Western Test Range (AFWTR). Debris objects in space refer to the collection of defunct objects orbiting the Earth. Examples of debris include non-operational satellites, rocket bodies, and fragments generated from explosions, collisions, or faulty payload assembly.

Loading next visibility...
Identifier
37892, 1966-040AX
Orbit
SSO
Country
Flag of USUS
Related business
Manufacturer
Unknown
Mission
Spacecraft
Bus & Motor
Unknown
Mass
Unknown
Launch date (UTC)
1966-05-15 (60 years ago)
Launch vehicle
Unknown
Launch site
Air Force Western Test Range (AFWTR)
Object type
Payload
Rocket body
Debris
Shape & HBR
Unknown shape, 0.1 m
Radar Cross Section
Medium (>0.1 m² and <1 m²)

Expand to show TLE details & history
Last TLE update: 17 hours ago

TLE from 17 hours ago
0 NIMBUS 2 DEB
1 37892U 66040AX  26262.36869581  .00001312  00000-0  21704-2 0  9992
2 37892 100.5012 226.0921 0052691 331.7014 182.9740 13.48566134374572
Epoch: 2026-09-19T08:50Z
TLE epoch observation values (Epoch: 2026-09-19T08:50:55.317Z)
Latitude
24.93052°
Longitude
-79.99908°
Altitude
1,119.652 km
Speed
7.276 km/s
True Right ascension
03h 24m 02s
True Declination
24° 48' 20"
Sunlit
Object was in daylight at epoch
Visualization orbit readout
Latitude
Unknown
Longitude
Unknown
Altitude
Unknown
Speed
Unknown
Apparent Right ascension
Unknown
Apparent Declination
Unknown
Sunlit
N/A
Visualization observer readout
Local Sidereal Time
18:21:27
Azimuth
Unknown
Elevation
Unknown
Doppler factor
Unknown
Orbital elements
Apogee altitude
1,114.155 km
Perigee altitude
1,035.614 km
Semi-major axis
7,453.022 km
Eccentricity
0.00527
Inclination
100.5012°
RAAN
226.0921°
Arg. of periapsis
331.7014°
True anomaly
182.94288°
Mean anomaly
182.974°
Eccentric anomaly
182.95842°
Mean motion
3.37322 °/min
Orbital period
106.72 mins
BSTAR
0.0021704
Loading maneuver chart data...
Computing Atmospheric mass density...
Loading historical data...
Loading historical data...
Loading historical data...
Loading historical data...
Loading historical data...
Loading historical data...
Loading historical data...

Documentation

Showing up to 5 results
|